Wind_Speed
14 14 14 13 12 11 10 9 8 7 7 7 6 6 6 6 6 6 5 5 4 4 2 2 2 2 3 2 1 1 1 2 2 3 3 4 4 4 4 5 6 7 7
13 13 13 13 12 11 10 9 8 7 6 6 6 6 6 6 6 6 5 5 5 4 3 2 2 3 3 2 2 2 3 3 3 4 4 5 5 5 5 6 7 8 7
10 11 11 12 12 11 10 10 9 7 6 6 6 6 6 6 5 5 5 5 4 4 3 3 2 2 3 3 4 4 4 4 4 5 5 6 5 6 6 6 7 8 8
8 9 10 11 11 11 10 10 9 8 7 6 6 6 5 5 5 5 4 4 4 4 3 3 2 3 3 4 5 5 6 6 6 6 6 6 6 6 7 7 8 9 9
6 8 9 9 10 10 10 10 9 9 7 6 6 5 5 5 5 5 4 4 4 4 3 3 4 4 4 5 5 6 6 7 7 7 7 7 7 8 8 9 9 10 10
6 6 7 7 8 9 9 9 9 8 8 7 6 6 6 5 5 5 5 4 4 4 4 4 5 5 6 6 7 7 7 7 7 8 8 8 9 9 10 10 11 11 12
6 5 6 7 7 7 8 8 8 8 7 7 6 6 6 6 6 6 6 5 5 6 6 6 6 6 7 8 8 8 8 8 9 9 9 10 10 11 11 12 12 13 13
8 7 6 6 7 7 7 7 7 7 7 6 6 6 6 6 6 6 6 6 6 7 7 7 7 7 8 9 9 9 9 10 10 10 11 11 11 12 12 13 13 13 13
9 8 7 7 7 7 7 7 7 7 7 6 6 6 6 6 6 7 7 7 7 7 7 7 8 8 9 10 10 10 10 11 11 11 11 12 12 12 13 14 14 13 13
10 9 7 7 8 8 7 7 7 7 8 7 7 6 6 6 6 7 7 8 8 8 8 8 8 9 9 9 9 10 10 10 11 11 11 12 12 12 13 14 14 14 13
11 10 9 7 8 8 8 8 7 8 8 8 8 7 7 7 7 7 7 7 8 8 9 8 8 9 9 9 10 10 10 11 11 11 12 12 13 13 14 14 14 15 15
11 10 10 10 10 10 10 9 9 9 9 9 9 8 8 8 7 7 7 8 9 10 10 9 9 9 10 10 10 10 11 12 12 12 13 13 14 15 15 15 16 16 15
13 12 12 13 12 12 11 11 10 10 10 10 11 10 10 9 9 8 8 9 9 10 10 10 10 10 11 11 12 11 11 13 13 14 14 14 15 15 16 17 17 17 17
15 14 14 14 14 14 13 13 12 12 11 11 12 10 11 10 10 9 9 9 10 11 11 11 12 12 12 12 13 13 13 14 14 15 16 16 16 17 17 18 19 19 19
16 16 16 16 16 15 15 15 14 13 13 13 12 12 12 12 11 11 11 11 11 12 12 12 12 13 13 14 14 14 15 16 16 17 18 18 19 18 18 18 19 21 21
19 18 18 18 18 17 17 16 16 15 14 14 14 14 14 14 13 13 13 14 14 13 14 14 14 14 15 15 16 16 17 17 18 19 19 19 20 20 20 21 21 21 22
21 20 19 19 20 20 19 18 18 17 17 17 17 16 16 16 16 15 15 15 15 16 15 16 15 15 15 16 17 18 18 19 19 20 21 21 21 21 22 22 23 22 23
23 23 22 21 21 21 21 21 21 20 19 19 19 19 18 18 17 17 17 17 17 18 17 17 17 17 17 17 18 19 20 21 21 22 22 23 23 23 23 24 24 24 24
25 25 24 24 23 24 24 23 22 22 22 21 21 20 20 18 18 18 18 18 19 19 19 19 19 19 19 20 20 21 22 23 24 24 24 24 24 24 25 25 25 26 26
26 26 26 26 25 25 24 24 24 23 22 22 23 22 20 19 19 19 20 21 21 21 21 21 21 21 22 22 23 24 25 25 25 26 25 25 26 26 26 26 27 27 27
27 27 26 27 26 26 25 25 25 24 24 24 24 23 22 22 22 22 22 23 23 23 23 23 23 24 25 25 25 26 27 27 27 28 27 27 27 27 28 28 28 28 28
28 27 27 27 27 27 27 26 26 26 25 25 25 24 23 23 24 25 25 25 25 25 25 25 25 25 26 27 27 27 28 28 28 28 29 29 30 29 30 30 30 30 30
29 29 28 28 28 28 27 28 28 27 27 27 27 26 26 26 26 26 27 26 26 27 26 26 26 26 27 28 28 29 29 30 30 30 31 31 30 30 31 31 31 30 30
30 30 29 29 28 29 28 28 28 28 28 29 28 28 28 28 28 27 27 27 27 27 27 28 28 28 29 29 30 31 31 31 31 32 33 32 31 31 30 31 31 32 31
30 30 29 29 29 29 29 29 29 29 30 29 29 29 29 28 28 28 28 29 29 29 29 29 30 30 31 32 33 33 32 33 33 33 33 33 33 31 31 31 31 32 32
30 30 30 29 29 29 29 29 30 30 30 30 30 29 29 30 30 30 30 30 30 31 31 31 31 32 32 33 33 33 33 33 33 33 33 33 32 32 31 31 32 32 32
Wind_Direction
35 36 36 37 37 37 36 37 39 40 43 48 51 51 55 63 67 68 69 69 71 79 85 79 81 82 76 71 41 360 338 323 322 318 317 312 309 310 316 321 322 319 320
32 32 32 33 33 34 34 35 36 37 41 45 46 46 48 55 58 61 61 57 60 58 57 67 65 57 41 23 5 352 337 327 320 315 311 305 306 311 312 316 319 318 321
29 27 26 28 30 31 31 31 30 32 33 35 37 40 46 51 50 51 50 44 47 48 48 48 43 22 7 355 357 351 346 338 333 324 316 311 311 312 315 316 318 320 323
21 20 21 21 24 28 29 27 25 25 29 31 34 38 40 39 35 31 27 28 34 33 30 28 16 1 351 342 336 340 341 334 331 327 320 318 319 317 321 322 317 319 321
9 13 12 15 17 20 22 23 26 27 25 25 28 31 31 29 22 15 12 14 14 9 9 7 2 358 354 345 339 337 337 335 335 335 335 330 322 321 318 316 313 313 314
349 356 357 4 9 13 15 17 22 26 26 26 26 24 24 23 18 12 7 6 3 4 357 350 351 348 343 339 335 332 332 332 333 335 334 330 326 326 322 315 310 311 313
320 331 345 347 353 1 6 9 11 14 17 20 23 21 18 17 18 15 10 6 358 356 350 339 338 337 335 330 326 322 324 326 326 327 326 325 322 322 320 314 312 312 312
306 311 324 330 333 342 350 355 357 1 1 3 8 9 10 9 12 14 9 6 358 353 349 341 336 331 329 326 320 316 318 320 321 322 322 321 319 320 319 317 314 313 310
295 298 304 315 318 324 333 340 342 345 348 350 352 353 353 355 358 1 359 358 356 353 350 346 340 335 330 329 324 319 317 317 320 321 319 317 319 320 320 321 319 317 316
292 298 297 309 311 315 319 325 330 332 333 335 339 342 343 340 344 348 348 348 349 349 346 341 338 337 335 332 331 330 329 326 323 322 321 321 319 318 318 320 321 318 316
284 293 295 299 306 310 310 314 317 320 325 329 328 330 331 329 330 339 345 343 343 344 340 332 330 333 336 335 334 332 330 330 329 326 322 321 320 319 319 319 319 316 315
280 285 287 291 295 302 304 305 308 312 314 317 318 317 319 324 324 327 333 332 332 335 334 328 326 328 330 330 328 326 327 328 328 326 323 320 319 318 317 317 317 315 314
274 276 278 282 286 292 297 299 299 302 303 304 309 309 313 316 319 319 322 325 330 330 327 325 323 323 326 325 325 321 322 326 326 326 324 320 316 314 314 314 313 311 311
274 274 277 280 282 286 290 292 291 294 295 296 297 298 303 308 309 312 318 321 325 327 325 320 321 320 322 321 321 321 319 320 320 320 321 319 314 310 310 310 309 309 308
269 271 276 278 277 278 282 286 286 288 289 289 291 295 297 299 299 302 307 310 313 316 316 316 315 316 316 315 314 316 315 315 317 318 318 318 315 308 308 310 310 308 307
268 268 272 276 277 276 278 280 280 281 284 287 288 289 292 293 290 294 298 301 304 306 308 308 309 312 311 308 307 308 309 310 311 313 314 314 313 311 311 311 311 311 311
267 268 269 272 275 278 277 276 277 278 280 283 284 285 286 287 286 286 291 295 298 299 300 300 301 304 306 305 303 303 304 307 310 311 311 311 311 310 310 311 310 309 309
266 267 269 272 272 274 276 276 278 279 281 282 283 283 281 283 283 283 286 291 291 294 295 296 297 299 301 300 300 301 303 304 306 308 308 308 307 307 308 309 309 308 307
264 266 268 270 271 272 273 274 277 280 280 281 283 284 283 282 282 281 283 287 289 289 290 292 294 295 297 297 298 298 300 301 303 304 305 305 305 304 304 305 306 305 305
262 263 265 266 269 271 270 272 276 278 279 280 281 284 282 281 282 283 284 286 286 286 287 289 291 292 293 294 296 297 298 299 300 301 302 303 303 303 304 304 304 303 301
261 262 264 266 266 266 268 271 273 276 277 278 278 281 280 279 281 282 283 284 285 286 286 288 289 290 291 293 294 295 298 298 299 300 301 303 303 303 303 302 302 301 299
260 262 264 267 268 266 267 270 272 274 275 277 279 279 278 280 280 280 281 282 282 284 287 287 287 289 291 293 293 293 295 297 298 299 300 301 302 301 302 301 302 301 300
260 262 265 267 267 267 266 268 271 274 275 276 278 278 278 278 280 282 283 284 284 285 285 286 286 287 289 291 293 294 294 295 296 297 298 299 299 300 301 301 301 302 300
260 263 264 265 265 265 266 267 269 272 273 275 277 278 279 279 280 280 284 286 286 287 287 288 287 287 288 289 291 293 293 293 295 296 296 297 296 298 299 299 300 301 299
258 262 264 263 264 265 266 266 268 269 272 274 277 278 278 279 280 282 284 285 286 287 288 288 288 289 290 289 289 290 291 292 293 295 295 295 296 296 297 298 298 299 299
258 260 262 263 263 265 266 267 268 269 271 274 276 277 278 279 280 281 282 283 285 287 288 288 287 289 290 290 290 290 290 292 294 295 295 296 295 295 296 297 297 298 298
Height
5902 5901 5900 5898 5897 5896 5895 5894 5893 5893 5892 5892 5891 5891 5891 5891 5891 5891 5890 5891 5891 5891 5891 5891 5891 5892 5892 5892 5892 5892 5892 5892 5892 5891 5891 5891 5890 5890 5890 5889 5889 5888 5887
5904 5903 5902 5901 5899 5898 5897 5896 5895 5894 5894 5893 5893 5893 5893 5892 5892 5892 5892 5892 5892 5892 5892 5892 5892 5892 5893 5892 5892 5892 5892 5892 5891 5891 5891 5890 5890 5889 5889 5888 5887 5886 5885
5906 5905 5904 5902 5901 5900 5899 5898 5897 5896 5895 5895 5894 5894 5894 5894 5893 5893 5893 5893 5893 5893 5893 5893 5893 5893 5893 5893 5893 5892 5892 5892 5891 5891 5891 5890 5889 5888 5888 5887 5886 5885 5884
5908 5906 5905 5904 5903 5902 5901 5899 5898 5897 5897 5896 5896 5895 5895 5895 5894 5894 5894 5894 5894 5894 5894 5893 5893 5893 5893 5893 5893 5892 5892 5891 5891 5890 5889 5889 5888 5888 5887 5886 5885 5884 5883
5908 5907 5906 5905 5904 5903 5902 5901 5900 5899 5898 5897 5897 5896 5896 5896 5895 5895 5895 5894 5894 5894 5894 5894 5894 5893 5893 5893 5892 5892 5891 5890 5890 5889 5889 5888 5887 5887 5886 5885 5884 5883 5882
5909 5908 5907 5906 5905 5904 5903 5902 5901 5900 5899 5898 5898 5897 5897 5896 5896 5895 5895 5895 5894 5894 5894 5894 5894 5893 5893 5893 5892 5892 5891 5890 5889 5889 5888 5887 5886 5885 5884 5883 5882 5881 5880
5909 5908 5907 5907 5906 5905 5904 5903 5902 5901 5900 5899 5898 5898 5897 5897 5896 5896 5895 5895 5894 5894 5894 5893 5893 5893 5893 5892 5892 5891 5890 5889 5889 5888 5887 5886 5885 5884 5883 5882 5880 5879 5878
5908 5907 5906 5906 5906 5905 5904 5904 5903 5902 5901 5900 5899 5899 5898 5898 5897 5896 5896 5895 5895 5894 5894 5893 5893 5892 5892 5891 5890 5890 5889 5888 5887 5886 5886 5884 5883 5882 5881 5879 5878 5876 5875
5907 5906 5906 5905 5905 5904 5904 5903 5903 5902 5901 5901 5900 5899 5899 5898 5897 5897 5896 5895 5895 5894 5893 5893 5892 5892 5891 5890 5889 5889 5888 5887 5886 5885 5884 5883 5881 5880 5878 5877 5875 5874 5872
5905 5905 5904 5903 5904 5903 5903 5903 5902 5902 5901 5900 5900 5899 5898 5898 5897 5896 5896 5895 5894 5894 5893 5892 5891 5891 5890 5889 5888 5887 5887 5886 5884 5883 5882 5881 5879 5878 5876 5875 5873 5871 5870
5903 5903 5902 5902 5902 5902 5902 5902 5902 5901 5901 5900 5899 5898 5897 5897 5896 5896 5895 5895 5894 5893 5892 5891 5890 5890 5889 5888 5887 5886 5885 5884 5883 5881 5880 5879 5878 5876 5874 5872 5870 5869 5867
5901 5900 5900 5900 5901 5901 5900 5900 5900 5900 5899 5899 5898 5897 5896 5896 5895 5895 5894 5894 5893 5892 5891 5890 5890 5889 5888 5887 5886 5885 5884 5883 5881 5880 5878 5877 5875 5874 5872 5870 5868 5866 5864
5898 5898 5898 5898 5898 5898 5898 5898 5898 5898 5897 5897 5896 5895 5895 5894 5894 5893 5893 5892 5891 5891 5890 5889 5888 5888 5887 5886 5885 5883 5882 5880 5879 5877 5876 5874 5872 5871 5869 5867 5865 5863 5861
5895 5895 5895 5896 5896 5896 5896 5895 5895 5895 5895 5894 5894 5894 5893 5893 5892 5891 5891 5890 5890 5889 5888 5888 5887 5886 5885 5884 5883 5881 5880 5878 5876 5875 5873 5871 5869 5867 5865 5864 5862 5860 5858
5892 5892 5892 5892 5892 5892 5892 5892 5891 5891 5891 5891 5891 5891 5890 5890 5889 5889 5889 5888 5887 5887 5886 5885 5885 5884 5883 5882 5880 5879 5877 5876 5874 5872 5870 5868 5865 5863 5861 5860 5858 5856 5854
5888 5888 5889 5888 5888 5888 5888 5888 5888 5887 5887 5887 5887 5888 5887 5886 5886 5886 5886 5885 5885 5884 5883 5882 5882 5881 5879 5878 5877 5876 5874 5873 5871 5869 5867 5865 5863 5860 5858 5856 5854 5852 5849
5883 5884 5885 5885 5884 5883 5883 5883 5883 5883 5883 5883 5882 5883 5883 5882 5882 5882 5882 5882 5881 5881 5880 5879 5878 5877 5876 5875 5874 5872 5871 5869 5867 5865 5863 5861 5859 5856 5854 5852 5849 5847 5844
5878 5879 5879 5880 5880 5879 5879 5878 5878 5879 5879 5879 5878 5878 5878 5878 5878 5877 5877 5877 5877 5876 5876 5875 5874 5873 5872 5870 5869 5868 5866 5865 5863 5861 5858 5856 5854 5852 5849 5847 5844 5842 5839
5872 5873 5873 5874 5874 5874 5874 5874 5874 5874 5874 5874 5873 5873 5872 5872 5872 5872 5872 5872 5872 5871 5871 5870 5869 5868 5867 5865 5864 5862 5861 5859 5857 5855 5853 5850 5848 5846 5844 5841 5839 5836 5834
5866 5866 5867 5868 5868 5868 5869 5869 5869 5869 5869 5869 5868 5868 5867 5868 5867 5867 5867 5867 5866 5866 5865 5864 5863 5862 5861 5860 5858 5856 5855 5853 5851 5849 5847 5844 5842 5840 5837 5835 5832 5830 5827
5859 5860 5861 5861 5862 5863 5863 5863 5864 5864 5864 5863 5863 5862 5862 5862 5862 5862 5861 5861 5860 5859 5858 5857 5857 5856 5855 5854 5852 5850 5848 5846 5844 5842 5840 5838 5836 5833 5830 5828 5825 5823 5820
5852 5853 5854 5855 5855 5856 5856 5856 5857 5857 5857 5857 5857 5855 5855 5855 5855 5855 5855 5854 5853 5853 5852 5851 5850 5849 5848 5847 5845 5843 5841 5839 5837 5835 5833 5831 5829 5826 5823 5821 5818 5815 5812
5845 5846 5847 5847 5848 5849 5849 5850 5850 5850 5850 5850 5850 5850 5849 5849 5848 5848 5848 5847 5846 5845 5845 5844 5843 5842 5841 5839 5838 5835 5833 5831 5829 5827 5825 5823 5821 5818 5816 5813 5810 5807 5804
5837 5838 5839 5840 5841 5841 5842 5843 5843 5843 5843 5843 5843 5843 5842 5842 5841 5841 5840 5840 5839 5838 5837 5836 5835 5834 5833 5832 5830 5827 5826 5824 5821 5819 5817 5814 5812 5810 5807 5805 5802 5799 5796
5829 5830 5831 5832 5833 5834 5834 5835 5835 5836 5836 5836 5836 5835 5835 5834 5834 5833 5833 5832 5832 5830 5830 5828 5827 5826 5825 5823 5821 5818 5817 5815 5813 5810 5808 5805 5803 5801 5798 5796 5793 5790 5788
5820 5822 5823 5823 5825 5826 5827 5827 5828 5828 5828 5828 5828 5828 5827 5827 5826 5825 5825 5824 5823 5822 5821 5820 5818 5817 5816 5814 5812 5810 5807 5805 5803 5801 5798 5796 5794 5792 5789 5787 5784 5782 5779